Regional Weather Roundup
Issued by NWS

Home | Current Version | Previous Version | Text Only | Print | Product List | Glossary Off
Versions: 1 2 3 4 5 6 7 8 9 10 11 12 13 14 15 16 17 18 19 20 21 22 23 24 25 26 27 28 29 30 31 32 33 34 35 36 37 38 39 40 41 42 43 44 45 46 47 48 49 50

000
ASUS43 KDMX 271406
RWRIA

WEATHER ROUNDUP FOR IOWA
NATIONAL WEATHER SERVICE DES MOINES IA
900 AM CDT THU APR 27 2017

NOTE: "FAIR" INDICATES FEW OR NO CLOUDS BELOW 12,000 FEET WITH NO
SIGNIFICANT WEATHER AND/OR OBSTRUCTIONS TO VISIBILITY.

* - THESE STATIONS ARE NOT NWS STATIONS...THUS NOT UNDER NWS
QUALITY CONTROL.  THEY ALSO DO NOT REPORT WEATHER SUCH
AS PRECIPITATION OR FOG.

IAZ001>003-012>014-020>022-031>034-043>046-271500-
   NORTHWEST IOWA

CITY           SKY/WX    TMP DP  RH WIND       PRES   REMARKS
CARROLL *      CLOUDY    34  32  93 NW15      29.66R WCI  24
CHEROKEE *     CLOUDY    32  29  90 NW12      29.67R WCI  23
DENISON *      CLOUDY    34  28  80 NW17      29.69R WCI  23
LE MARS *      CLOUDY    32  28  86 NW12      29.70R WCI  23
ORANGE CITY *  CLOUDY    32  28  86 NW10      29.66R WCI  24
SHELDON *      CLOUDY    30  27  86 NW15G22   29.64R WCI  19
SIOUX CITY     CLOUDY    34  28  79 NW13      29.71R WCI  25
SPENCER        CLOUDY    31  26  82 NW13      29.63R WCI  21
STORM LAKE *   MOSUNNY   30  28  93 NW18      29.65R WCI  18
$$

IAZ055>058-069>071-079>083-090>094-271500-
   SOUTHWEST IOWA

CITY           SKY/WX    TMP DP  RH WIND       PRES   REMARKS
ATLANTIC *     CLOUDY    37  30  75 W13       29.70R WCI  29
AUDUBON *      CLOUDY    36  30  80 NW14      29.67S WCI  27
CLARINDA *     CLOUDY    41  30  65 NW13G18   29.72S
COUNCIL BLFS *   N/A     37  30  75 NW12G18   29.72R WCI  30
CRESTON *      CLOUDY    39  32  75 NW15      29.68S WCI  31
HARLAN  *      CLOUDY    36  30  80 NW15      29.73R WCI  26
LAMONI         CLOUDY    40  31  70 W17       29.67S WCI  31
RED OAK *      CLOUDY    39  30  70 W13       29.72R WCI  32
SHENANDOAH *   CLOUDY    41  32  70 W8        29.73R
$$

IAZ047>049-059>061-072>074-084-271500-
   CENTRAL IOWA

CITY           SKY/WX    TMP DP  RH WIND       PRES   REMARKS
AMES           CLOUDY    35  30  82 W14       29.65R WCI  26
ANKENY *       CLOUDY    36  30  80 W13       29.67R WCI  27
BOONE *        CLOUDY    34  28  80 NW17G24   29.64R WCI  23
CHARITON *     CLOUDY    37  32  81 W18       29.66R WCI  27
DES MOINES     CLOUDY    38  29  70 NW16      29.66R WCI  29
GRINNELL*      CLOUDY    35  32  89 W16       29.64R WCI  25
KNOXVILLE *    CLOUDY    37  32  81 W14G20    29.64R WCI  29
MARSHALLTOWN   CLOUDY    35  31  85 NW17      29.62R WCI  25
NEWTON *       CLOUDY    36  28  75 NW15G22   29.64R WCI  26
PELLA *        CLOUDY    36  32  84 NW14G22   29.66R WCI  27
PERRY *        CLOUDY    36  31  81 NW12      29.66R WCI  28
$$

IAZ004>006-015-016-023>025-035-036-271500-
   NORTH CENTRAL IOWA

CITY           SKY/WX    TMP DP  RH WIND       PRES   REMARKS
ALGONA *       CLOUDY    34  27  75 NW18      29.61R WCI  23
CLARION *      CLOUDY    34  30  86 NW20      29.61S WCI  22
ESTHERVILLE    CLOUDY    30  27  88 NW18      29.61R WCI  18
FORT DODGE *   CLOUDY    34  25  69 NW10      29.65R WCI  26
MASON CITY     CLOUDY    33  31  92 NW14      29.59R WCI  23
FOREST CITY *  CLOUDY    32  30  93 NW16      29.58R FOG     WCI  21
WEBSTER CITY * CLOUDY    34  27  75 NW20      29.61R WCI  22
IOWA FALLS *   CLOUDY    35  31  87 NW16      29.61R WCI  25
$$

IAZ007>011-017>019-026>030-037>042-050>054-066-271500-
   NORTHEAST IOWA

CITY           SKY/WX    TMP DP  RH WIND       PRES   REMARKS
CEDAR RAPIDS   CLOUDY    36  35  96 W16       29.59R WCI  26
CHARLES CITY * CLOUDY    36  32  87 W16       29.57R WCI  26
CLINTON *      CLOUDY    39  37  92 W21       29.56R WCI  29
DECORAH *      LGT RAIN  36  34  93 NW9       29.51R WCI  29
DUBUQUE        CLOUDY    38  35  89 W16       29.53R WCI  29
MONTICELLO *   CLOUDY    37  34  87 W17       29.56R WCI  28
OELWEIN *      PTSUNNY   36  36 100 W17G24    29.56R WCI  25
WATERLOO       CLOUDY    35  32  88 NW14      29.58R FOG     WCI  26
$$

IAZ064-065-067-068-078-271500-
   EAST CENTRAL IOWA

CITY           SKY/WX    TMP DP  RH WIND       PRES   REMARKS
DAVENPORT      CLOUDY    39  35  86 W20G29    29.58R WCI  29
IOWA CITY      CLOUDY    39  32  76 W14       29.62R WCI  31
MT. PLEASANT * CLOUDY    38  34  84 W10G17    29.65R WCI  32
MUSCATINE *    CLOUDY    39  34  81 W16       29.62R WCI  30
QUAD CITIES    CLOUDY    41  35  79 W16G24    29.58R
$$

IAZ062-063-075>077-085>089-095>099-271500-
   SOUTHEAST IOWA

CITY           SKY/WX    TMP DP  RH WIND       PRES   REMARKS
BURLINGTON     CLOUDY    41  38  89 W16       29.63R
FAIRFIELD *    CLOUDY    39  34  81 W12G18    29.64R WCI  32
FORT MADISON * CLOUDY    41  39  93 W9        29.65R
KEOKUK *       CLOUDY    41  39  93 W15       29.65R
OSKALOOSA *    CLOUDY    37  34  89 NW15      29.65R FOG     WCI  27
CENTERVILLE *  CLOUDY    39  36  87 W12       29.68R WCI  32
OTTUMWA        CLOUDY    38  35  89 W13       29.65R WCI  30
WASHINGTON *   CLOUDY    37  36  93 W12G18    29.64R WCI  30
$$

ABBREVIATIONS USED IN REMARKS
   TC - TEMPERATURES IN CELSIUS
  WCI - WIND CHILL INDEX
   HX - HEAT INDEX
  VSB - VISIBILITY
$$




USA.gov is the U.S. government's official web portal to all federal, state and local government web resources and services.